{"data":{"norad_id":62015,"epoch":"2026-09-21T22:51:59.602752Z","epoch_age_seconds":60038,"freshness":"FRESH","line1":"1 62015U 24213H   26264.95277318  .00108895  00000+0  89197-3 0  9995","line2":"2 62015  53.1577 153.5235 0001547  34.0799 326.0318 15.69708522105742","mean_motion":15.69708522,"eccentricity":0.0001547,"inclination_deg":53.1577,"raan_deg":153.5235,"arg_perigee_deg":34.0799,"mean_anomaly_deg":326.0318,"bstar":0.00089197,"rev_number":10574,"period_min":91.736776593738,"perigee_km":358.68863171686,"apogee_km":360.77332806984,"semimajor_km":6737.8679798934,"source":"CELESTRAK","updated_at":"2026-09-22T09:00:49.483467Z"}}